This demonstration page uses our WeatherBlox Daily Observations layout. Learn more.

41.55636, -103.73856

Hourly Observations for January 16, 2018

Temp ( °F °C ) Dew Point ( °F °C ) Humidity (%) Winds ( mph kmh ) Pressure ( in mb ) Visibility ( mi km ) Precip ( " mm )
12:53 am 00:53 Clear -7 -21.7 -12 -24.4 79 79 NNE 6 9 30.86 1045 10 16.09344 0 0
1:53 am 01:53 Clear -8 -22.2 -13 -25 78 78 E 6 9 30.86 1045 10 16.09344 0 0
2:53 am 02:53 Clear -8 -22.2 -13 -25 78 78 Calm 30.83 1044 10 16.09344 0 0
3:53 am 03:53 Clear -8 -22.2 -13 -25 78 78 Calm 30.83 1044 10 16.09344 0 0
4:53 am 04:53 Clear -8 -22.2 -13 -25 78 78 Calm 30.83 1044 10 16.09344 0 0
5:53 am 05:53 Clear -10 -23.3 -15 -26.1 78 78 N 3 6 30.83 1044 10 16.09344 0 0
6:53 am 06:53 Clear -9 -22.8 -15 -26.1 75 75 N 5 7 30.83 1044 10 16.09344 0 0
7:53 am 07:53 Sunny -9 -22.8 -14 -25.6 78 78 Calm 30.83 1044 10 16.09344 0 0
8:53 am 08:53 Sunny -4 -20 -9 -22.8 79 79 Calm 30.83 1044 10 16.09344 0 0
9:53 am 09:53 Sunny 0 -17.8 -5 -20.6 79 79 Calm 30.8 1043 10 16.09344 0 0
10:53 am 10:53 Sunny 2 -16.7 -3 -19.4 80 80 ESE 6 9 30.77 1042 10 16.09344 0 0
11:53 am 11:53 Sunny 5 -15 -1 -18.3 76 76 SE 3 6 30.71 1040 10 16.09344 0 0
12:53 pm 12:53 Sunny 8 -13.3 0 -17.8 69 69 ESE 6 9 30.68 1039 10 16.09344 0 0
1:53 pm 13:53 Sunny 11 -11.7 3 -16.1 70 70 ESE 7 11 30.62 1037 10 16.09344 0 0
2:53 pm 14:53 Sunny 13 -10.6 5 -15 70 70 ESE 10 17 30.59 1036 10 16.09344 0 0
3:53 pm 15:53 Sunny 13 -10.6 6 -14.4 74 74 ESE 5 7 30.59 1036 10 16.09344 0 0
4:53 pm 16:53 Clear 12 -11.1 4 -15.6 70 70 ESE 5 7 30.56 1035 10 16.09344 0 0
5:53 pm 17:53 Clear 10 -12.2 3 -16.1 73 73 ESE 3 6 30.56 1035 10 16.09344 0 0
6:53 pm 18:53 Clear 7 -13.9 2 -16.7 80 80 ESE 5 7 30.56 1035 10 16.09344 0 0
7:53 pm 19:53 Clear 7 -13.9 2 -16.7 80 80 E 5 7 30.53 1034 10 16.09344 0 0
8:53 pm 20:53 Clear 10 -12.2 3 -16.1 73 73 E 5 7 30.5 1033 10 16.09344 0 0
9:53 pm 21:53 Clear 12 -11.1 3 -16.1 67 67 E 13 20 30.48 1032 10 16.09344 0 0
10:53 pm 22:53 Clear 10 -12.2 2 -16.7 69 69 Calm 30.48 1032 10 16.09344 0 0
11:53 pm 23:53 Clear 6 -14.4 2 -16.7 83 83 Calm 30.48 1032 10 16.09344 0 0

Powered by AerisWeather